Location: Caltech
(34.1382°N, 118.1253°W)
Time: 02:13:28
(UTC-07:00)

A-11 Canister half - All Passes

Search period start: 24 May 2015 00:00
Search period end: 03 June 2015 00:00
Orbit: 1515 x 1685 km, 47.2° (Epoch: 22 May)

Date Brightness Start Highest point End Pass type
(mag) Time Alt. Az. Time Alt. Az. Time Alt. Az.
24 May - 05:16:23 10° SE 05:19:17 12° SE 05:22:57 10° E visible
24 May - 07:14:07 10° SSW 07:23:11 59° SE 07:32:12 10° ENE daylight
24 May - 09:19:12 10° W 09:28:14 54° NNW 09:37:17 10° NE daylight
24 May - 11:26:31 10° WNW 11:34:53 36° N 11:43:23 10° ENE daylight
24 May - 13:32:29 10° NW 13:41:34 54° NNE 13:50:55 10° E daylight
24 May - 15:37:29 10° WNW 15:46:43 61° SW 15:56:14 10° SSE daylight
24 May - 17:46:12 10° W 17:50:45 14° SW 17:54:37 10° SSW daylight
25 May - 04:54:57 10° SE 04:56:27 11° SE 04:58:48 10° ESE visible
25 May - 06:51:21 10° SSW 07:00:20 55° SE 07:09:16 10° ENE daylight
25 May - 08:56:13 10° WSW 09:05:18 56° NNW 09:14:22 10° NE daylight
25 May - 11:03:31 10° WNW 11:11:53 36° N 11:20:21 10° ENE daylight
25 May - 13:09:36 10° NW 13:18:36 52° NNE 13:27:52 10° E daylight
25 May - 15:14:34 10° WNW 15:23:51 65° SW 15:33:24 10° SE daylight
25 May - 17:22:41 10° W 17:27:54 15° SW 17:32:32 10° SSW daylight
26 May - 06:28:35 10° SSW 06:37:29 52° SE 06:46:20 10° ENE daylight
26 May - 08:33:13 10° WSW 08:42:22 58° NNW 08:51:28 10° NE daylight
26 May - 10:40:31 10° WNW 10:48:52 36° N 10:57:20 10° ENE daylight
26 May - 12:46:41 10° NW 12:55:38 50° NNE 13:04:50 10° E daylight
26 May - 14:51:40 10° WNW 15:00:58 69° SW 15:10:33 10° SE daylight
26 May - 16:59:18 10° W 17:05:03 17° SW 17:10:18 10° SSW daylight
27 May - 06:05:49 10° SSW 06:14:38 48° SE 06:23:23 10° ENE daylight
27 May - 08:10:14 10° WSW 08:19:26 61° NNW 08:28:35 10° NE daylight
27 May - 10:17:29 10° WNW 10:25:53 37° N 10:34:19 10° ENE daylight
27 May - 12:23:47 10° NW 12:32:40 48° NNE 12:41:47 10° E daylight
27 May - 14:28:47 10° WNW 14:38:06 73° SW 14:47:41 10° SE daylight
27 May - 16:35:59 10° W 16:42:12 18° SW 16:48:00 10° SSW daylight
28 May - 05:43:05 10° SSW 05:51:48 45° SE 06:00:27 10° ENE daylight
28 May - 07:47:15 10° WSW 07:56:31 64° NNW 08:05:41 10° NE daylight
28 May - 09:54:28 10° WNW 10:02:53 37° N 10:11:18 10° ENE daylight
28 May - 12:00:53 10° NW 12:09:42 46° NNE 12:18:43 10° E daylight
28 May - 14:05:53 10° NW 14:15:12 77° SW 14:24:49 10° SE daylight
28 May - 16:12:46 10° W 16:19:21 20° SW 16:25:36 10° SSW daylight
29 May - 05:20:22 10° SSW 05:28:56 42° SE 05:37:28 10° ENE daylight
29 May - 07:24:16 10° WSW 07:33:35 67° NNW 07:42:47 10° NE daylight
29 May - 09:31:26 10° WNW 09:39:53 37° N 09:48:20 10° ENE daylight
29 May - 11:37:58 10° NW 11:46:44 45° NNE 11:55:40 10° E daylight
29 May - 13:42:59 10° NW 13:52:19 81° SW 14:01:55 10° SE daylight
29 May - 15:49:35 10° W 15:56:30 22° SW 16:03:10 10° S daylight
30 May - 04:57:40 10° SSW 05:06:06 39° SE 05:14:31 10° ENE visible
30 May - 07:01:18 10° WSW 07:10:40 70° NNW 07:19:54 10° NE daylight
30 May - 09:08:24 10° WNW 09:16:53 38° N 09:25:20 10° ENE daylight
30 May - 11:15:03 10° NW 11:23:45 43° NNE 11:32:37 10° E daylight
30 May - 13:20:05 10° NW 13:29:26 85° SW 13:39:01 10° SE daylight
30 May - 15:26:26 10° WNW 15:33:39 24° SW 15:40:40 10° S daylight
31 May - 04:35:00 10° SSW 04:43:15 36° SE 04:51:30 10° ENE visible
31 May - 06:38:21 10° WSW 06:47:45 74° NNW 06:57:01 10° NE daylight
31 May - 08:45:22 10° WNW 08:53:53 38° N 09:02:22 10° ENE daylight
31 May - 10:52:08 10° NW 11:00:46 42° NNE 11:09:34 10° E daylight
31 May - 12:57:12 10° NW 13:06:33 90° SSW 13:16:07 10° SE daylight
31 May - 15:03:20 10° WNW 15:10:49 26° SW 15:18:08 10° S daylight
01 Jun - 04:12:20 10° S 04:20:25 33° SE 04:28:31 10° ENE visible
01 Jun - 06:15:24 10° WSW 06:24:51 78° NNW 06:34:07 10° NE daylight
01 Jun - 08:22:19 10° WNW 08:30:54 39° N 08:39:24 10° NE daylight
01 Jun - 10:29:11 10° NW 10:37:47 41° NNE 10:46:31 10° E daylight
01 Jun - 12:34:19 10° NW 12:43:38 86° NE 12:53:12 10° SE daylight
01 Jun - 14:40:16 10° WNW 14:47:57 28° SW 14:55:34 10° S daylight
02 Jun - 03:49:42 10° S 03:57:34 31° SE 04:05:29 10° ENE visible
02 Jun - 05:52:27 10° WSW 06:01:56 81° NW 06:11:14 10° NE daylight
02 Jun - 07:59:16 10° W 08:07:54 40° NNW 08:16:27 10° NE daylight
02 Jun - 10:06:14 10° NW 10:14:48 40° NNE 10:23:27 10° E daylight
02 Jun - 12:11:26 10° NW 12:20:45 82° NE 12:30:16 10° ESE daylight
02 Jun - 14:17:13 10° WNW 14:25:07 31° SW 14:32:57 10° S daylight
